Centerville, IA

10:44 PM CDT on April 22, 2018 (GMT -0500)
Centerville Municipal

Weather History for KTVK - May, 2013

Change the Weather History Date:

Monday, May 20, 2013

  Actual Average Record
Temperature  
Mean Temperature 68 °F -  
Max Temperature 77 °F 75 °F 89 °F (1975)
Min Temperature 59 °F 53 °F 35 °F (1954)
Cooling Degree Days 3    
Growing Degree Days 18 (Base 50)    
Moisture  
Dew Point 63 °F    
Average Humidity 86    
Maximum Humidity 100    
Minimum Humidity 65    
Precipitation  
Precipitation 0.00 in - - ()
Sea Level Pressure  
Sea Level Pressure 29.68 in    
Wind  
Wind Speed 15 mph (South)    
Max Wind Speed 23 mph    
Max Gust Speed 31 mph    
Visibility 10 miles    
Events Rain    
Averages and records for this station are not official NWS values.
T = Trace of Precipitation, MM = Missing Value Source: NWS Daily Summary

Daily Weather History Graph

Daily Weather History Graph

Search for Another Location

Airport or City:

Astronomy

May. 20, 2013 Rise Set
Actual Time 5:50 AM CDT 8:26 PM CDT
Civil Twilight 5:18 AM CDT 8:58 PM CDT
Nautical Twilight 4:39 AM CDT 9:38 PM CDT
Astronomical Twilight 3:54 AM CDT 10:22 PM CDT
Moon 3:33 PM CDT (5/20) 2:46 AM CDT (5/20)
Length of Visible Light 15h 40m
Length of Day
14h 36m
Waxing Gibbous, 75% of the Moon is Illuminated
May 20
Waxing Gibbous
May 24
Full
May 31
Last Quarter
Jun 8
New
Jun 16
First Quarter

Hourly Weather History & Observations

Time (CDT) Temp. Dew Point Humidity Pressure Visibility Wind Dir Wind Speed Gust Speed Precip Events Conditions
12:15 AM 62.6 °F 62.6 °F 100% 29.72 in 10.0 mi South 16.1 mph 19.6 mph N/A Rain Light Rain
12:35 AM 62.6 °F 62.6 °F 100% 29.73 in 10.0 mi South 18.4 mph 23.0 mph N/A Rain Light Rain
12:55 AM 62.6 °F 62.6 °F 100% 29.72 in 8.0 mi SSE 17.3 mph 20.7 mph N/A   Overcast
1:15 AM 62.6 °F 62.6 °F 100% 29.66 in 10.0 mi ESE 18.4 mph 24.2 mph N/A   Overcast
1:35 AM 62.6 °F 62.6 °F 100% 29.65 in 10.0 mi SE 15.0 mph 20.7 mph N/A   Mostly Cloudy
1:55 AM 62.6 °F 62.6 °F 100% 29.67 in 10.0 mi South 11.5 mph - N/A   Clear
2:15 AM 62.6 °F 62.6 °F 100% 29.66 in 10.0 mi South 12.7 mph - N/A   Partly Cloudy
2:35 AM 62.6 °F 62.6 °F 100% 29.66 in 10.0 mi South 13.8 mph 19.6 mph N/A   Partly Cloudy
3:15 AM 60.8 °F 60.8 °F 100% 29.63 in 10.0 mi South 18.4 mph 24.2 mph N/A   Clear
3:35 AM 60.8 °F 60.8 °F 100% 29.54 in 10.0 mi SE 12.7 mph 21.9 mph N/A   Clear
3:55 AM 60.8 °F 60.8 °F 100% 29.62 in 10.0 mi SW 11.5 mph - N/A   Clear
4:15 AM 60.8 °F 60.8 °F 100% 29.66 in 10.0 mi SSW 11.5 mph - N/A   Partly Cloudy
4:35 AM 59.0 °F 59.0 °F 100% 29.65 in 10.0 mi South 10.4 mph - N/A   Clear
4:55 AM 59.0 °F 59.0 °F 100% 29.67 in 10.0 mi South 9.2 mph - N/A   Clear
5:15 AM 59.0 °F 59.0 °F 100% 29.68 in 10.0 mi South 11.5 mph - N/A   Clear
5:35 AM 59.0 °F 59.0 °F 100% 29.68 in 10.0 mi SSE 11.5 mph - N/A   Clear
5:55 AM 59.0 °F 59.0 °F 100% 29.67 in 10.0 mi SSE 10.4 mph - N/A   Clear
6:15 AM 59.0 °F 59.0 °F 100% 29.68 in 10.0 mi South 11.5 mph - N/A   Clear
6:35 AM 59.0 °F 59.0 °F 100% 29.68 in 10.0 mi South 11.5 mph - N/A   Clear
6:55 AM 60.8 °F 59.0 °F 94% 29.69 in 10.0 mi South 10.4 mph - N/A   Clear
7:15 AM 60.8 °F 59.0 °F 94% 29.70 in 10.0 mi South 8.1 mph - N/A   Clear
7:35 AM 62.6 °F 59.0 °F 88% 29.71 in 10.0 mi SSW 11.5 mph - N/A   Clear
7:55 AM 64.4 °F 60.8 °F 88% 29.70 in 10.0 mi South 13.8 mph 18.4 mph N/A   Clear
8:15 AM 64.4 °F 60.8 °F 88% 29.71 in 10.0 mi South 16.1 mph - N/A   Clear
8:35 AM 66.2 °F 60.8 °F 83% 29.71 in 10.0 mi SSW 16.1 mph - N/A   Clear
8:55 AM 66.2 °F 62.6 °F 88% 29.71 in 10.0 mi SSW 16.1 mph 20.7 mph N/A   Clear
9:15 AM 66.2 °F 62.6 °F 88% 29.72 in 10.0 mi SSW 20.7 mph 26.5 mph N/A   Clear
9:35 AM 68.0 °F 62.6 °F 83% 29.72 in 10.0 mi SSW 20.7 mph 25.3 mph N/A   Clear
9:55 AM 68.0 °F 62.6 °F 83% 29.72 in 10.0 mi SSW 15.0 mph 24.2 mph N/A   Clear
10:15 AM 69.8 °F 62.6 °F 78% 29.72 in 10.0 mi South 16.1 mph - N/A   Clear
10:35 AM 71.6 °F 62.6 °F 73% 29.73 in 10.0 mi South 20.7 mph 25.3 mph N/A   Clear
10:55 AM 71.6 °F 64.4 °F 78% 29.73 in 10.0 mi South 18.4 mph - N/A   Clear
11:15 AM 71.6 °F 64.4 °F 78% 29.73 in 10.0 mi SW 18.4 mph 21.9 mph N/A   Clear
11:35 AM 71.6 °F 62.6 °F 73% 29.74 in 10.0 mi SSW 18.4 mph - N/A   Clear
11:55 AM 71.6 °F 64.4 °F 78% 29.74 in 10.0 mi SSW 13.8 mph 20.7 mph N/A   Clear
12:15 PM 71.6 °F 64.4 °F 78% 29.74 in 10.0 mi SSW 16.1 mph - N/A   Clear
12:35 PM 71.6 °F 64.4 °F 78% 29.75 in 10.0 mi SSW 17.3 mph 21.9 mph N/A   Clear
12:55 PM 71.6 °F 64.4 °F 78% 29.74 in 10.0 mi South 16.1 mph 20.7 mph N/A   Clear
1:55 PM 75.2 °F 64.4 °F 69% 29.74 in 10.0 mi SSW 16.1 mph 23.0 mph N/A   Clear
2:15 PM 75.2 °F 64.4 °F 69% 29.74 in 10.0 mi SSW 20.7 mph 25.3 mph N/A   Clear
2:35 PM 75.2 °F 62.6 °F 65% 29.74 in 10.0 mi SSW 16.1 mph 24.2 mph N/A   Clear
2:55 PM 75.2 °F 62.6 °F 65% 29.74 in 10.0 mi SSW 19.6 mph 26.5 mph N/A   Clear
3:15 PM 77.0 °F 66.2 °F 69% 29.73 in 10.0 mi SSW 20.7 mph 25.3 mph N/A   Clear
3:35 PM 77.0 °F 64.4 °F 65% 29.72 in 10.0 mi South 21.9 mph 31.1 mph N/A   Clear
3:55 PM 77.0 °F 64.4 °F 65% 29.72 in 10.0 mi South 23.0 mph 31.1 mph N/A   Clear
4:15 PM 75.2 °F 62.6 °F 65% 29.72 in 10.0 mi South 21.9 mph 29.9 mph N/A   Partly Cloudy
4:35 PM 75.2 °F 62.6 °F 65% 29.71 in 10.0 mi South 17.3 mph 21.9 mph N/A   Clear
4:55 PM 75.2 °F 62.6 °F 65% 29.70 in 10.0 mi South 19.6 mph 27.6 mph N/A   Clear
5:15 PM 75.2 °F 64.4 °F 69% 29.70 in 10.0 mi South 19.6 mph - N/A   Clear
5:35 PM 75.2 °F 64.4 °F 69% 29.69 in 10.0 mi South 19.6 mph 23.0 mph N/A   Clear
5:55 PM 73.4 °F 64.4 °F 73% 29.66 in 10.0 mi SSE 13.8 mph 18.4 mph N/A   Clear
6:15 PM 75.2 °F 66.2 °F 73% 29.67 in 10.0 mi SSE 13.8 mph - N/A   Clear
6:35 PM 75.2 °F 64.4 °F 69% 29.66 in 10.0 mi SE 17.3 mph 23.0 mph N/A   Clear
6:55 PM 73.4 °F 64.4 °F 73% 29.66 in 10.0 mi SSE 18.4 mph 21.9 mph N/A   Partly Cloudy
7:15 PM 71.6 °F 66.2 °F 83% 29.66 in 10.0 mi SSE 15.0 mph - N/A   Scattered Clouds
7:35 PM 71.6 °F 64.4 °F 78% 29.64 in 10.0 mi SSE 15.0 mph 25.3 mph N/A   Partly Cloudy
7:55 PM 68.0 °F 64.4 °F 88% 29.62 in 10.0 mi SSE 12.7 mph - N/A   Partly Cloudy
8:15 PM 68.0 °F 64.4 °F 88% 29.63 in 10.0 mi South 12.7 mph - N/A   Clear
8:35 PM 66.2 °F 62.6 °F 88% 29.63 in 10.0 mi SSE 10.4 mph - N/A   Clear
8:55 PM 66.2 °F 62.6 °F 88% 29.60 in 10.0 mi SSE 9.2 mph - N/A   Clear
9:15 PM 66.2 °F 62.6 °F 88% 29.60 in 10.0 mi South 8.1 mph - N/A   Clear
9:35 PM 64.4 °F 62.6 °F 94% 29.59 in 10.0 mi South 5.8 mph - N/A   Clear
9:55 PM 64.4 °F 64.4 °F 100% 29.62 in 10.0 mi South 5.8 mph - N/A   Clear
10:15 PM 64.4 °F 64.4 °F 100% 29.64 in 10.0 mi South 3.5 mph - N/A   Clear
10:35 PM 66.2 °F 64.4 °F 94% 29.66 in 10.0 mi WNW 6.9 mph - N/A   Mostly Cloudy
10:55 PM 66.2 °F 64.4 °F 94% 29.67 in 10.0 mi NW 3.5 mph - N/A   Mostly Cloudy
11:15 PM 64.4 °F 59.0 °F 83% 29.67 in 10.0 mi NNW 5.8 mph - N/A   Mostly Cloudy
11:35 PM 62.6 °F 62.6 °F 100% 29.67 in 10.0 mi SE 3.5 mph - N/A Rain Light Rain
11:55 PM 62.6 °F 62.6 °F 100% 29.67 in 10.0 mi South 6.9 mph - N/A   Clear